www.pogodaiklimat.ru
Время
и дата
08:20 30.12
08:37 30.12
08:52 30.12
09:15 30.12
09:52 30.12
10:52 30.12
11:10 30.12
11:30 30.12
11:52 30.12
12:52 30.12
13:09 30.12
13:44 30.12
13:52 30.12
14:52 30.12
15:52 30.12
16:52 30.12
17:52 30.12
18:18 30.12
18:52 30.12
19:49 30.12
19:52 30.12
20:28 30.12
20:52 30.12
21:52 30.12
22:25 30.12
22:52 30.12
23:52 30.12
00:52 31.12
01:52 31.12
01:59 31.12
02:52 31.12
03:37 31.12
03:52 31.12
04:52 31.12
05:52 31.12
06:52 31.12
07:52 31.12
08:52 31.12
09:52 31.12
10:52 31.12
11:52 31.12
12:25 31.12
12:52 31.12
13:52 31.12
14:52 31.12
15:52 31.12
16:14 31.12
16:52 31.12
Ветер
(напр.,м/с)
Видим. Явления Облачность Т
(С)
Тd
(С)
f
(%)
Тe
(С)
Тes
(С)
Комфортность P
(гПа)
Po
(гПа)
Тmin
(С)
Tmax
(С)
R
(мм)
R24
(мм)
S
(см)
СЗ 1 16 км 10/10 270 м -2.8 -8.3 66 -8 -8 986.9
СЗ 1 16 км 10/10 300 м -2.8 -8.3 66 -8 -8 986.9
СЗ 1 16 км 10/10 330 м -2.8 -8.3 66 -8 -8 1014.4 987.3
СЗ 1 16 км 10/10 420 м -2.2 -7.8 65 -7 -7 987.3
З 1 16 км 10/10 240 м -2.2 -7.2 69 -6 -6 1014.7 987.6
СЗ 1 16 км 10/10 450 м -2.2 -6.7 71 -6 -6 1013.6 986.3
нст 1 16 км 10/10 420 м -1.7 -6.1 72 -5 -5 985.9
штиль 0 10 км слабая замерзающая морось, дымка 10/10 450 м -1.1 -5.6 71 -2 -2 985.3
штиль 0 16 км 10/10 510 м -0.6 -4.4 75 -2 -2 1012.2 985.0 -3.9 -0.6
штиль 0 16 км 10/10 630 м +1.1 -2.8 75 0 0 1011.4 984.3
штиль 0 16 км 10/10 630 м +1.7 -2.8 72 +1 +1 984.0
ЮВ 1 16 км 8/8 840 м +2.2 -2.8 69 -2 -1 983.6
ЮВ 1 16 км 10/10 840 м +2.2 -2.2 73 -1 -1 1010.8 984.0
ЮВ 1 16 км 10/10 510 м +2.2 -2.2 73 -1 -1 1010.4 983.3
ЮВ 1 16 км 10/10 660 м +2.2 -2.2 73 -2 -2 1009.9 983.0
ЮВ 2 16 км 10/10 540 м +2.2 -2.8 69 -3 -3 1009.8 982.6
Ю 1 16 км 10/10 600 м +2.2 -2.2 73 -1 -1 1010.0 983.0 -0.6 +2.8
Ю 1 16 км 10/10 420 м +2.2 -2.2 73 -1 -1 983.3
Ю 1 13 км слабая морось 10/10 300 м +2.2 -1.7 75 -1 -1 1009.7 982.6
Ю 1 6 км слабая морось, дымка 10/10 270 м +2.0 -1.0 80 -1 -1 982.6
Ю 1 6 км слабая морось, дымка 10/10 270 м +2.2 -0.6 82 -2 -2 1009.7 982.6
ЮЗ 1 8 км слабая морось, дымка 10/10 240 м +1.7 -0.6 85 -3 -3 982.6
ЮЗ 2 10 км слабая морось 10/10 510 м +1.7 -0.6 85 -3 -3 1009.2 982.3 0.3
ЮЗ 2 11 км 10/10 270 м +1.7 -1.1 82 -3 -3 1008.8 982.0
ЮЗ 2 11 км 10/10 270 м +1.7 -1.7 78 -3 -3 982.3
ЮЗ 2 11 км 10/10 240 м +1.7 -1.7 78 -3 -3 1009.3 982.3
ЮЗ 2 10 км мгла 10/10 240 м +1.7 -1.1 82 -4 -4 1009.0 982.3 +1.1 +2.8 0.3
ЮЗ 2 10 км мгла 10/10 240 м +1.7 -1.7 78 -3 -3 1009.0 982.3
З 1 10 км мгла 10/10 240 м +1.1 -1.7 82 -3 -3 1009.5 982.6
З 1 10 км дымка 10/10 240 м +1.1 -1.1 85 -3 -3 982.6
З 1 13 км 10/10 480 м +1.1 -1.7 82 -3 -3 1009.6 982.6
З 2 16 км 10/10 420 м +1.1 -2.8 75 -4 -4 983.0
З 2 16 км 10/10 420 м +1.1 -2.8 75 -5 -5 1009.5 982.6
З 2 16 км 10/10 390 м +1.1 -3.3 72 -4 -4 1009.7 983.0
СЗ 2 16 км 10/10 390 м +0.6 -3.3 75 -5 -5 1010.0 983.0 +0.6 +1.7 0.3
З 1 16 км 10/10 390 м +0.6 -3.3 75 -3 -3 1009.7 982.6
штиль 0 14 км 10/10 360 м +0.6 -3.3 75 0 0 1009.3 982.3
ЮВ 1 14 км 10/10 360 м +0.6 -3.3 75 -3 -3 1009.7 983.0
Ю 1 14 км 10/10 360 м +0.6 -2.8 78 -3 -3 1010.2 983.3
ЮВ 2 16 км 10/10 390 м +1.7 -2.2 75 -3 -3 1008.9 982.0
ЮВ 2 16 км 10/10 420 м +2.8 -1.7 72 -2 -2 1008.0 981.3 +0.6 +2.8
Ю 2 16 км 10/10 480 м +3.3 -1.7 70 -1 -1 980.7
В 1 16 км 10/10 480 м +3.3 -1.7 70 0 0 1006.2 979.3
В 1 16 км 10/10 510 м +3.3 -1.7 70 0 0 1005.9 979.3
В 2 16 км 10/10 540 м +3.3 -1.7 70 -1 -1 1005.5 978.7
В 1 14 км 10/10 450 м +3.3 -1.1 73 0 0 1005.1 978.4
СВ 2 11 км слабая морось 10/10 390 м +3.3 -0.6 76 -1 -1 978.4
СВ 1 3 км слабая морось, дымка 10/10 180 м +3.3 +0.6 82 -1 -1 1005.9 979.0
Местоположение метеостанции General Mitchell International Airport: широта 42.9550 долгота -87.9044 высота над уровнем моря 220 м.
В архиве по умолчанию представлена погода в Милуоки за последние 1-2 суток. Обновление информации о фактической погоде в базе происходит ежечасно! Архивные данные за месяц целиком и за предыдущие месяцы Вы можете получить, выбрав интересующий диапазон дат из раскрывающегося списка и нажав кнопку "Ввод!".
Внимание! Архив погоды МЕТАР в базе сайта по станциям, не включенным в климатический монитор, хранится не более 60 дней. Нет смысла пытаться выбрать более раннюю дату.
*Определитесь, кто Вы:
Внимание! Время в таблицах - местное (без учета летнего времени). Для получения всемирного времени необходимо вычесть поправку, которая равна -6 ч.
Смотрите также архив погоды в соседних городах и на ближайших метеорологических станциях:
Партнеры нашего сайта:      
Пояснения к столбцам:
  • Ветер - указаны скорость ветра в м/с - средняя за 10 мин, порывы в срок и между сроками (в фигурных скобках) и направление, откуда дует ветер: С - северный,
  • СВ - северо-восточный, В - восточный, ЮВ - юго-восточный, Ю - южный, ЮЗ - юго-западный, З - западный, СЗ - северо-западный.
  • Видимость - горизонтальная дальность видимости в метрах или километрах. При видимости от 1 до 10 км при отсутствии осадков обычно наблюдается дымка, при ухудшении видимости до 1 км и менее - туман. В сухую погоду видимость может ухудшаться дымом, пылью или мглою.
  • Явления - указаны атмосферные явления, наблюдавшиеся в срок или в последний час перед сроком; фигурными скобками обозначены явления, наблюдавшиеся между сроками (за 1-3 часа до срока); квадратными скобками обозначены град или гололедные отложения с указанием их диаметра в мм.
  • Облачность - указаны через наклонную черту общая и нижняя облачность в баллах и высота нижней границы облаков в метрах; квадратными скобками обозначены формы облаков: Ci - перистые, Cs - перисто-слоистые, Cc - перисто-кучевые, Ac - высококучевые, As - высокослоистые, Sc - слоисто-кучевые, Ns - слоисто-дождевые, Cu - кучевые, Cb - кучево-дождевые. Подробнее классификацию облаков см. в Атласе облаков (PDF).
  • T - Температура воздуха - температура, измеренная на высоте 2 м над землей.
  • Td - Температура точки росы - температура, при понижении до которой содержащийся в воздухе водяной пар достигнет насыщения.
  • f - Относительная влажность воздуха - влажноcть воздуха, измеренная на высоте 2 м над землей.
  • Te - Эффективная температура - температура, которую ощущает одетый по сезону человек в тени. Характеристика душности погоды. При расчете учитывается влияние влажности воздуха и скорости ветра на теплоощущения человека.
  • Tes - Эффективная температура на солнце - температура, которую ощущает человек, с поправкой на солнечный нагрев. Характеристика знойности погоды. Зависит от высоты солнца над горизонтом, облачности и скорости ветра. Ночью, в пасмурную погоду, а также при ветре 12 м/с и более поправка равна нулю.
  • P - Атмосферное давление - приведенное к уровню моря атмосферное давление.
  • Po - Атмосферное давление - измеренное на уровне метеостанции атмосферное давление.
  • Tmin - Минимальная температура - минимум температуры воздуха на высоте 2 м над землей.
  • Tmax - Максимальная температура - максимум температуры воздуха на высоте 2 м над землей.
  • R - Количество осадков - Количество выпавших осадков за период времени, мм. При наведении курсора мыши на число - период времени, за который выпало указанное количество осадков.
  • R24 - Количество осадков - Количество выпавших осадков за 24 часа, мм.
  • S - Снежный покров - Высота снежного покрова, см. При наведении курсора мыши на число - состояние снежного покрова и степень покрытия местности в баллах.